Location: Tokoinen
(61.6000°N, 23.0000°E)
Time: 11:09:55
(UTC+00:00)

Daily predictions for brighter satellites

Satellite Brightness Start Highest point End
(mag) Time Altitude Azimuth Time Altitude Azimuth Time Altitude Azimuth
Cosmos 2369 Rocket 2.8 20:29:20 10° S 20:34:32 40° ESE 20:39:47 10° NE
Cosmos 1238 Rocket 4.2 20:32:15 10° NNW 20:38:10 59° W 20:43:09 10° S
ATLAS CENTAUR R/B 2.7 20:37:25 10° SSE 20:39:58 18° ESE 20:42:35 10° E
SPOT 5 4.3 20:42:00 10° SSW 20:46:55 37° W 20:51:55 10° NNW
COSMOS 2487 2.6 20:44:27 10° NNW 20:47:51 66° NE 20:51:15 10° SE
Okean 1-7 3.8 20:44:58 10° SSE 20:48:54 37° E 20:52:54 10° NNE
Okean 2 Rocket 4.2 20:45:05 10° N 20:49:12 36° ENE 20:53:17 10° SE
Spot 4 4.0 20:46:14 10° SSE 20:51:06 77° ENE 20:55:57 10° NNW
Cosmos 1975 3.5 20:49:15 10° NNW 20:53:08 51° W 20:57:01 10° S
Cosmos 1400 Rocket 4.5 20:49:48 10° N 20:53:22 28° NE 20:56:53 10° ESE
Cosmos 2242 Rocket 4.2 20:50:54 10° SSE 20:55:08 45° E 20:59:28 10° NNE
ERS-1 Rocket 4.5 20:51:25 10° SSW 20:55:51 31° W 21:00:20 10° NNW
Cosmos 1125 Rocket 4.5 20:51:28 10° SSE 20:56:00 31° ESE 21:00:32 10° NE
Cosmos 1782 Rocket 3.6 20:52:36 10° NNW 20:57:06 83° ENE 21:01:32 10° SSE
Cosmos 1862 Rocket 3.6 20:55:42 10° SSW 21:00:02 87° WNW 21:04:25 10° NNE
ISS -2.0 20:58:06 10° SW 21:00:13 16° S 21:02:19 10° SE
Meteor 1-18 Rocket 4.2 20:55:58 10° S 21:01:33 79° ESE 21:07:08 10° NNE
Cosmos 1703 Rocket 4.1 20:57:39 10° SSE 21:01:54 47° E 21:06:12 10° NNE
Cosmos 1934 Rocket 4.3 20:58:16 10° NNW 21:04:23 60° ENE 21:10:22 10° SSE
Cosmos 967 Rocket 4.5 21:00:10 10° SW 21:06:26 75° SE 21:12:45 10° ENE
Cosmos 1378 4.2 21:04:29 10° SSE 21:07:49 31° E 21:11:09 10° NNE
Cosmos 2084 3.7 21:04:13 10° W 21:08:31 75° N 21:12:56 10° E
Timation 2 Rocket 4.2 21:03:27 10° NW 21:09:28 67° NE 21:15:27 10° ESE
Cosmos 1937 Rocket 3.7 21:04:38 10° SW 21:09:49 80° NW 21:15:06 10° NE
RESURS DK-1 4.2 21:06:44 10° WNW 21:09:56 21° WSW 21:13:07 10° SSW
Lacrosse 5 3.5 21:10:12 10° SSE 21:13:03 15° SE 21:15:55 10° E
Cosmos 1805 3.5 21:12:38 10° N 21:16:32 62° ENE 21:20:24 10° SSE
Cosmos 1821 Rocket 4.2 21:10:11 10° NNW 21:16:38 83° W 21:23:01 10° S
Cosmos 2263 4.5 21:11:23 10° SSW 21:16:59 53° ESE 21:22:38 10° NE
Cosmos 2227 Rocket 2.7 21:12:00 10° NW 21:17:40 63° NE 21:23:17 10° ESE
Cosmos 2297 Rocket 2.5 21:13:50 10° NW 21:19:33 73° NE 21:25:14 10° SE
Cosmos 1356 Rocket 3.6 21:17:05 10° NNW 21:21:24 73° WSW 21:25:41 10° S
EP 1 4.4 21:19:20 10° WSW 21:21:57 74° NNW 21:24:39 10° ENE
Meteor 1-12 Rocket 4.4 21:17:39 10° NNW 21:23:33 76° WSW 21:29:16 10° S
USA 281 4.3 21:20:12 10° E 21:26:21 45° NNE 21:32:32 10° NW
Meteor 1-15 Rocket 4.3 21:25:42 10° NNW 21:31:27 88° ENE 21:37:17 10° SSE
Cosmos 1867 3.8 21:27:50 10° SSW 21:33:06 52° SE 21:38:27 10° ENE
SJ 16-02 3.9 21:29:41 10° W 21:33:24 25° NNW 21:37:08 10° NNE
Cosmos 2181 Rocket 4.3 21:27:51 10° SSW 21:33:58 67° WNW 21:40:07 10° NNE
DNEPR-1 R/B 3.8 21:28:50 10° SW 21:34:07 78° SSE 21:38:37 10° ENE
Okean 3 3.9 21:30:08 10° S 21:34:11 50° E 21:38:16 10° NNE
SL-27 R/B 4.3 21:32:29 10° WNW 21:34:58 19° WSW 21:37:27 10° SSW
Meteor 2-4 Rocket 3.7 21:29:21 10° SSW 21:35:00 89° ESE 21:40:31 10° NNE
Cosmos 2082 4.4 21:30:58 10° NW 21:36:35 56° NE 21:42:13 10° ESE
Okean 1 Rocket 4.1 21:33:17 10° N 21:37:28 40° ENE 21:41:36 10° SE
Cosmos 1766 3.4 21:34:03 10° NNW 21:38:01 71° ENE 21:41:52 10° SSE
Cosmos 2297 4.2 21:33:16 10° WSW 21:38:56 65° NW 21:44:36 10° NE
COSMOS 2455 3.0 21:33:06 10° NW 21:39:03 63° SW 21:45:00 10° SSE
Terra 4.0 21:41:17 10° SW 21:44:37 19° W 21:47:57 10° NW
USA 215 3.4 21:38:15 10° ESE 21:44:41 56° SSW 21:51:07 10° W
Cosmos 372 Rocket 4.2 21:40:06 10° SW 21:45:13 74° NW 21:50:22 10° NNE
TSX-5 3.4 21:42:58 10° NW 21:46:12 86° NE 21:49:55 10° SE
Cosmos 1943 Rocket 2.6 21:43:31 10° SW 21:49:07 68° NW 21:54:42 10° NE
Cosmos 1269 Rocket 4.5 21:44:35 10° NW 21:49:44 51° WSW 21:54:42 11° S
Cosmos 2221 Rocket 4.4 21:46:13 10° SSE 21:50:25 41° E 21:54:42 10° NNE
USA 81 4.4 21:45:11 10° N 21:50:28 63° ENE 21:55:43 10° SSE
Cosmos 1300 Rocket 3.7 21:48:42 10° NNW 21:53:06 70° W 21:57:16 11° S
Cosmos 1656 Rocket 3.7 21:48:43 10° SSW 21:54:13 74° SE 21:59:49 10° NE
ALOS 2 2.9 21:51:57 11° S 21:56:09 58° WSW 22:00:30 10° NNW
Cosmos 2251 Rocket 3.6 21:51:03 10° NW 21:56:20 81° NE 22:01:35 10° SE
COBE Rocket 4.2 21:51:31 11° S 21:56:34 72° WSW 22:01:48 10° NNW
Cosmos 1470 3.5 21:53:14 10° N 21:57:04 48° ENE 22:00:54 10° SE
Cosmos 1953 4.3 21:55:36 10° N 21:58:53 24° ENE 22:02:10 10° ESE
Cosmos 2263 Rocket 3.4 21:58:39 10° NW 22:04:05 45° NNE 22:09:33 10° E
Thor Agena Rocket 4.3 22:02:14 10° NNE 22:07:16 43° E 22:12:11 11° S
Cosmos 1733 3.5 22:04:47 10° NNW 22:08:32 57° W 22:12:00 12° S
Cosmos 2298 Rocket 4.1 22:04:27 10° SW 22:09:46 87° NW 22:15:08 10° NE
Cosmos 1455 Rocket 4.5 22:06:31 10° N 22:10:29 33° ENE 22:14:27 10° SE
Cosmos 1461 3.2 22:06:07 10° WSW 22:10:47 81° NNW 22:15:17 10° ENE
Cosmos 2219 3.3 22:06:06 10° NW 22:11:48 75° SW 22:17:32 10° SSE
Nadezhda 3 Rocket 4.1 22:07:01 10° SSW 22:13:16 81° WNW 22:19:29 10° NNE
Cosmos 1842 4.3 22:11:27 10° SSE 22:14:56 35° E 22:18:32 10° NNE
Meteor 1-13 Rocket 4.2 22:10:42 10° SSW 22:16:15 85° WNW 22:21:50 10° NNE
Cosmos 2278 Rocket 4.1 22:11:40 10° WNW 22:16:51 35° NNW 22:22:02 10° NE
ATLAS CENTAUR R/B 1.2 22:14:27 10° SW 22:18:10 64° SE 22:22:07 10° ENE
Cosmos 2369 Rocket 2.5 22:12:42 10° SW 22:18:21 71° NW 22:24:04 10° NE
Sich 1 Rocket 4.4 22:14:44 10° NNW 22:19:04 43° W 22:23:17 10° SSW
COSMOS 2487 4.2 22:19:48 10° NW 22:22:23 20° WSW 22:24:58 10° SSW
Cosmos 1605 Rocket 4.1 22:16:50 10° NNW 22:23:06 77° W 22:29:20 10° S
Okean 1-7 4.0 22:22:20 10° SW 22:26:27 44° WNW 22:30:38 10° N
Okean 2 Rocket 3.7 22:23:12 10° NNW 22:27:26 47° W 22:31:30 11° SSW
Aureole 2 Rocket 4.2 22:25:45 10° NNW 22:27:57 22° NE 22:30:10 10° E
APEX 3.6 22:24:11 10° NW 22:28:18 79° SW 22:33:31 10° SE
Cosmos 2151 Rocket 4.0 22:25:33 10° NNW 22:29:58 54° W 22:34:08 11° S
Cosmos 2173 Rocket 4.4 22:23:57 10° NNW 22:30:07 63° ENE 22:36:19 10° SSE
Cosmos 1400 Rocket 3.1 22:26:06 10° NNW 22:30:11 61° WSW 22:33:54 12° S
Cosmos 1726 2.1 22:26:34 10° NNW 22:30:18 81° ENE 22:33:54 11° SSE
SL-16 R/B 3.6 22:24:55 10° ESE 22:30:50 46° NE 22:36:46 10° NNW
Cosmos 407 Rocket 3.8 22:25:41 10° NNW 22:31:04 73° NE 22:36:27 10° SE
ISS -1.8 22:34:36 10° SW 22:36:05 12° SSW 22:36:27 12° S
Cosmos 2150 Rocket 4.4 22:30:51 10° SW 22:36:09 68° NW 22:41:23 10° NNE
Cosmos 1707 4.1 22:33:11 10° SSE 22:36:31 29° E 22:39:52 10° NNE
Cosmos 1125 Rocket 3.7 22:32:29 10° SW 22:37:43 76° NW 22:42:58 10° NE
Cosmos 1908 4.5 22:35:33 10° N 22:39:14 38° ENE 22:42:55 10° SE
Cosmos 1697 Rocket 4.5 22:37:18 10° SE 22:41:04 19° E 22:44:51 10° ENE
Cosmos 1758 3.5 22:37:01 10° NNW 22:41:09 79° ENE 22:45:13 10° SSE
SAR-Lupe-2 3.6 22:38:21 10° NNE 22:41:58 78° WNW 22:45:30 10° SSW
Cosmos 1315 Rocket 2.9 22:38:56 10° NNW 22:42:57 77° ENE 22:47:01 10° SSE
Cosmos 1378 4.2 22:39:30 10° SW 22:43:02 41° WNW 22:46:37 10° N
PSLV R/B 4.0 22:43:45 10° NNE 22:48:01 52° E 22:52:02 11° S
Cosmos 2084 3.5 22:43:48 10° WNW 22:48:09 81° SSW 22:52:37 10° ESE
Lacrosse 4 Rocket 3.8 22:47:59 10° SE 22:49:54 13° ESE 22:51:48 10° E
Cosmos 1607 4.1 22:44:50 10° WSW 22:51:21 89° SSE 22:57:53 10° ENE
Cosmos 1378 Rocket 3.7 22:47:38 11° S 22:51:43 65° E 22:56:01 10° NNE
Cosmos 724 4.5 22:48:11 10° SW 22:54:22 72° SE 23:00:38 10° ENE
Lacrosse 5 2.5 22:50:18 10° SW 22:54:55 35° SSE 22:59:32 10° E
Cosmos 1975 Rocket 4.4 22:52:03 10° SSE 22:55:50 30° E 22:59:38 10° NNE
Cosmos 1980 Rocket 4.3 22:53:13 10° SE 22:56:10 15° E 22:59:06 10° ENE
Cosmos 2061 Rocket 4.5 22:49:53 10° NNW 22:56:12 64° ENE 23:02:33 10° SSE
Timation 2 Rocket 4.3 22:51:06 10° NW 22:56:49 47° WSW 23:02:31 10° S
Cosmos 614 Rocket 4.2 22:54:48 10° NW 22:59:47 55° WSW 23:04:46 10° S
ADEOS II 4.5 22:58:29 10° NE 23:01:03 14° ENE 23:03:37 10° ESE
SeaSat 1 3.7 22:56:51 10° NE 23:01:09 29° ESE 23:05:24 10° S
Cosmos 2227 Rocket 2.6 22:56:16 10° NW 23:01:40 46° WSW 23:07:02 10° S
Cosmos 1954 Rocket 4.4 22:56:30 10° NNW 23:01:47 67° NE 23:07:04 10° SE
Cosmos 2297 Rocket 2.9 22:58:08 10° NW 23:03:22 38° WSW 23:08:33 10° S
Cosmos 1674 4.4 23:01:08 10° SE 23:04:19 25° E 23:07:30 10° NNE
Cosmos 1656 4.5 23:00:02 10° S 23:05:04 39° ESE 23:10:12 10° NE
Cosmos 2100 Rocket 4.1 23:00:58 10° NNW 23:07:18 83° W 23:13:41 10° S
USA 281 3.3 23:03:57 10° SE 23:10:33 85° SW 23:17:12 10° NW
Cosmos 1140 Rocket 3.5 23:07:13 10° NW 23:12:27 76° WSW 23:17:41 10° SSE
Okean 1 Rocket 3.8 23:11:18 10° NNW 23:15:26 41° W 23:19:29 10° SSW
Cosmos 1802 Rocket 4.0 23:09:34 10° NNW 23:15:47 90° ESE 23:21:56 10° SSE
Cosmos 1867 3.9 23:11:09 10° WSW 23:16:40 76° NNW 23:22:11 10° ENE
YAOGAN 11 4.2 23:13:26 10° S 23:17:43 66° WSW 23:22:02 10° NNW
Cosmos 2082 3.9 23:15:15 10° NW 23:20:50 56° WSW 23:26:24 10° SSE
DNEPR-1 R/B 4.3 23:16:46 10° W 23:21:39 61° N 23:25:57 10° ENE
COSMOS 2455 4.3 23:19:40 10° WNW 23:24:02 21° WSW 23:28:24 10° SSW
Cosmos 1674 Rocket 3.8 23:19:38 10° SSW 23:24:05 67° WNW 23:28:34 10° NNE
Resurs 1-4 Rocket 3.5 23:20:43 10° NNE 23:25:24 31° E 23:30:03 10° SSE
Okean 2 3.5 23:23:28 10° SSW 23:27:37 79° WNW 23:31:48 10° NNE
USA 215 3.8 23:22:44 10° SSE 23:28:37 35° SW 23:34:32 10° W
Helios 1A 3.2 23:25:07 10° S 23:29:13 57° WSW 23:33:20 10° NNW
Cosmos 1470 4.0 23:29:32 10° NNW 23:32:58 29° W 23:36:25 10° SSW
Cosmos 1943 Rocket 3.9 23:28:36 10° W 23:33:44 35° NNW 23:38:51 10° NE
CZ-2D R/B 3.4 23:30:20 10° NNE 23:35:18 35° E 23:40:10 10° SSE
Cosmos 1953 2.4 23:31:42 10° NNW 23:35:42 69° W 23:39:40 10° S
Cosmos 1300 3.6 23:32:42 10° N 23:36:27 49° ENE 23:40:10 10° SE
Cosmos 1544 Rocket 3.6 23:34:47 10° NNW 23:39:14 86° WSW 23:43:40 10° S
Cosmos 371 Rocket 3.7 23:36:58 10° SSW 23:41:46 58° ESE 23:46:35 10° NE
EO 1 Del DPAF 3.3 23:38:19 10° NNE 23:42:03 69° WNW 23:45:45 10° SSW
Cosmos 1727 Rocket 4.2 23:36:54 10° SSW 23:43:16 75° WNW 23:49:40 10° NNE
NOSS 3-3 (A) 4.4 23:37:32 10° WNW 23:44:29 81° SSW 23:52:32 10° ESE
NOSS 3-3 (C) 4.4 23:37:40 10° WNW 23:44:35 81° SSW 23:52:36 10° ESE
Thor Agena Rocket 4.2 23:41:38 10° NNE 23:46:45 54° WNW 23:51:54 10° SW
Cosmos 1844 Rocket 3.7 23:42:50 10° NW 23:48:22 52° NNE 23:53:54 10° ESE
Cosmos 2263 Rocket 2.2 23:42:47 10° NW 23:48:28 77° SW 23:54:08 10° SSE
Cosmos 1455 Rocket 3.4 23:44:19 10° NNW 23:48:34 52° W 23:52:48 10° S
Cosmos 332 Rocket 4.5 23:44:09 10° S 23:48:48 47° ESE 23:53:28 10° NE
Cosmos 1461 3.9 23:45:43 10° W 23:50:15 55° N 23:54:35 10° ENE
Cosmos 1842 4.2 23:47:14 10° SW 23:50:54 39° WNW 23:54:38 10° N
Aureole 1 Rocket 3.7 23:49:19 10° NNW 23:52:23 45° NE 23:55:59 10° ESE
Cosmos 1459 Rocket 4.4 23:47:04 10° NNW 23:53:07 52° W 23:59:03 10° SSW
KORONAS-FOTON 4.2 23:49:32 10° S 23:53:24 63° E 23:57:17 10° NNE
